Location: Arthez
(43.0833°N, 0.2500°W)
Time: 11:52:29
(UTC+00:00)

Cosmos 304 Rocket - Pass Details

Date: 04 June 2022
Orbit: 679 x 686 km, 74.0° (Epoch: 01 July)

Event Time Altitude Azimuth Distance (km) Brightness Sun altitude
Exits shadow 23:12:59 72° 185° (S) 723 3.6 -23.5°
Maximum altitude 23:13:28 86° 109° (ESE) 694 3.6 -23.6°
Drops below altitude 10° 23:18:19 10° 21° (NNE) 2,142 7.1 -23.7°
Sets 23:20:38 0° 21° (NNE) 3,062 8.1 -23.8°
